Hourly Weather Lugowka

Today, 15 May, Saturday

Time Temperature Precipitation Wind Pressure Humidity
00:00 +10°C° 0 mm 3 mps 745 mmHg 94%
01:00 +10°C° 0 mm 3 mps 745 mmHg 94%
02:00 +9°C° 0 mm 3 mps 745 mmHg 94%
03:00 +9°C° 0 mm 3 mps 746 mmHg 94%
04:00 +9°C° 0 mm 3 mps 746 mmHg 94%
05:00 +10°C° 0 mm 4 mps 746 mmHg 89%
06:00 +11°C° 0 mm 4 mps 746 mmHg 84%
07:00 +12°C° 0 mm 4 mps 747 mmHg 82%
08:00 +13°C° 0 mm 5 mps 747 mmHg 75%
09:00 +14°C° 0 mm 5 mps 747 mmHg 69%
10:00 +15°C° 0 mm 5 mps 747 mmHg 63%
11:00 +16°C° 0 mm 5 mps 747 mmHg 59%
12:00 +18°C° 0 mm 4 mps 747 mmHg 56%
13:00 +18°C° 0 mm 4 mps 747 mmHg 53%
14:00 +19°C° 0 mm 3 mps 747 mmHg 52%
15:00 +19°C° 0 mm 3 mps 747 mmHg 51%
16:00 +19°C° 0 mm 2 mps 746 mmHg 50%
17:00 +18°C° 0 mm 2 mps 746 mmHg 56%
18:00 +16°C° 0 mm 2 mps 746 mmHg 62%
19:00 +15°C° 0 mm 2 mps 746 mmHg 68%
20:00 +14°C° 0 mm 2 mps 746 mmHg 71%
21:00 +13°C° 0 mm 2 mps 746 mmHg 73%
22:00 +11°C° 0 mm 3 mps 746 mmHg 76%
23:00 +11°C° 0 mm 3 mps 746 mmHg 79%

Tomorrow, 16 May, Sunday

Time Temperature Precipitation Wind Pressure Humidity
00:00 +11°C° 0 mm 3 mps 746 mmHg 82%
01:00 +11°C° 0 mm 3 mps 746 mmHg 85%
02:00 +11°C° 0.4 mm 3 mps 746 mmHg 88%
03:00 +11°C° 0.4 mm 3 mps 746 mmHg 91%
04:00 +11°C° 0.4 mm 3 mps 746 mmHg 94%
05:00 +12°C° 0.1 mm 3 mps 746 mmHg 91%
06:00 +13°C° 0.1 mm 3 mps 745 mmHg 88%
07:00 +14°C° 0.1 mm 4 mps 745 mmHg 84%
08:00 +16°C° 0.5 mm 3 mps 745 mmHg 81%
09:00 +17°C° 0.5 mm 3 mps 745 mmHg 77%
10:00 +18°C° 0.5 mm 3 mps 745 mmHg 74%
11:00 +18°C° 0.7 mm 3 mps 745 mmHg 71%
12:00 +19°C° 0.7 mm 3 mps 744 mmHg 69%
13:00 +19°C° 0.7 mm 2 mps 744 mmHg 66%
14:00 +18°C° 0.8 mm 3 mps 744 mmHg 71%
15:00 +18°C° 0.8 mm 3 mps 744 mmHg 75%
16:00 +17°C° 0.8 mm 3 mps 743 mmHg 80%
17:00 +16°C° 1 mm 3 mps 744 mmHg 85%
18:00 +13°C° 1 mm 3 mps 744 mmHg 90%
19:00 +12°C° 1 mm 3 mps 744 mmHg 95%
20:00 +12°C° 0.3 mm 3 mps 744 mmHg 95%
21:00 +12°C° 0.3 mm 2 mps 744 mmHg 95%
22:00 +12°C° 0.3 mm 2 mps 744 mmHg 95%
23:00 +10°C° 0 mm 2 mps 745 mmHg 96%

Day after tomorrow, 17 May, Monday

Time Temperature Precipitation Wind Pressure Humidity
00:00 +10°C° 0 mm 2 mps 745 mmHg 96%
01:00 +9°C° 0 mm 2 mps 745 mmHg 96%
02:00 +9°C° 0 mm 2 mps 745 mmHg 95%
03:00 +9°C° 0 mm 2 mps 745 mmHg 95%
04:00 +8°C° 0 mm 2 mps 745 mmHg 95%
05:00 +10°C° 0 mm 3 mps 745 mmHg 90%
06:00 +11°C° 0 mm 3 mps 745 mmHg 86%
07:00 +13°C° 0 mm 3 mps 745 mmHg 82%
08:00 +14°C° 0 mm 3 mps 745 mmHg 76%
09:00 +17°C° 0 mm 3 mps 745 mmHg 69%
10:00 +18°C° 0 mm 3 mps 745 mmHg 63%
11:00 +18°C° 0.2 mm 4 mps 745 mmHg 62%
12:00 +19°C° 0.2 mm 4 mps 745 mmHg 60%
13:00 +19°C° 0.2 mm 4 mps 744 mmHg 58%
14:00 +18°C° 0.4 mm 4 mps 744 mmHg 65%
15:00 +17°C° 0.4 mm 4 mps 744 mmHg 71%
16:00 +15°C° 0.4 mm 4 mps 744 mmHg 77%
17:00 +14°C° 0.7 mm 3 mps 744 mmHg 82%
18:00 +13°C° 0.7 mm 3 mps 744 mmHg 88%
19:00 +13°C° 0.7 mm 2 mps 744 mmHg 94%
20:00 +12°C° 1.7 mm 2 mps 744 mmHg 94%
21:00 +12°C° 1.7 mm 2 mps 744 mmHg 95%
22:00 +12°C° 1.7 mm 1 mps 744 mmHg 96%
23:00 +12°C° 0.3 mm 2 mps 744 mmHg 96%

18 May, Tuesday

Time Temperature Precipitation Wind Pressure Humidity
00:00 +10°C° 0.3 mm 2 mps 744 mmHg 95%
01:00 +10°C° 0.3 mm 2 mps 744 mmHg 95%
02:00 +10°C° 0 mm 3 mps 744 mmHg 95%
03:00 +8°C° 0 mm 4 mps 744 mmHg 95%
04:00 +8°C° 0 mm 4 mps 744 mmHg 95%
05:00 +8°C° 0 mm 5 mps 744 mmHg 93%
06:00 +9°C° 0 mm 5 mps 744 mmHg 91%
07:00 +9°C° 0 mm 6 mps 744 mmHg 89%
08:00 +10°C° 0 mm 6 mps 745 mmHg 83%
09:00 +11°C° 0 mm 6 mps 745 mmHg 78%
10:00 +13°C° 0 mm 6 mps 745 mmHg 72%
11:00 +14°C° 0.2 mm 6 mps 745 mmHg 71%
12:00 +14°C° 0.2 mm 6 mps 745 mmHg 70%
13:00 +14°C° 0.2 mm 6 mps 745 mmHg 69%
14:00 +14°C° 0.3 mm 6 mps 745 mmHg 71%
15:00 +14°C° 0.3 mm 6 mps 745 mmHg 74%
16:00 +14°C° 0.3 mm 6 mps 745 mmHg 76%
17:00 +13°C° 0.1 mm 5 mps 745 mmHg 79%
18:00 +12°C° 0.1 mm 5 mps 746 mmHg 82%
19:00 +10°C° 0.1 mm 5 mps 746 mmHg 85%
20:00 +10°C° 0 mm 5 mps 746 mmHg 87%
21:00 +9°C° 0 mm 5 mps 746 mmHg 90%
22:00 +8°C° 0 mm 5 mps 747 mmHg 92%
23:00 +8°C° 0 mm 4 mps 747 mmHg 93%

19 May, Wednesday

Time Temperature Precipitation Wind Pressure Humidity
00:00 +7°C° 0 mm 4 mps 747 mmHg 94%
01:00 +7°C° 0 mm 4 mps 748 mmHg 94%
02:00 +6°C° 0 mm 4 mps 748 mmHg 95%
03:00 +6°C° 0 mm 4 mps 748 mmHg 95%
04:00 +6°C° 0 mm 4 mps 748 mmHg 96%
05:00 +7°C° 0 mm 5 mps 748 mmHg 91%
06:00 +9°C° 0 mm 5 mps 749 mmHg 86%
07:00 +10°C° 0 mm 6 mps 749 mmHg 80%
08:00 +11°C° 0.1 mm 6 mps 749 mmHg 74%
09:00 +13°C° 0.1 mm 6 mps 749 mmHg 68%
10:00 +14°C° 0.1 mm 6 mps 749 mmHg 61%
11:00 +14°C° 0.1 mm 6 mps 749 mmHg 62%
12:00 +14°C° 0.1 mm 6 mps 750 mmHg 62%
13:00 +14°C° 0.1 mm 6 mps 750 mmHg 62%
14:00 +14°C° 0.2 mm 5 mps 750 mmHg 66%
15:00 +13°C° 0.2 mm 5 mps 750 mmHg 70%
16:00 +13°C° 0.2 mm 5 mps 750 mmHg 74%
17:00 +12°C° 0.1 mm 4 mps 750 mmHg 75%
18:00 +11°C° 0.1 mm 3 mps 750 mmHg 77%
19:00 +10°C° 0.1 mm 3 mps 750 mmHg 78%
20:00 +9°C° 0 mm 3 mps 750 mmHg 80%
21:00 +8°C° 0 mm 3 mps 751 mmHg 83%
22:00 +7°C° 0 mm 3 mps 751 mmHg 85%
23:00 +7°C° 0 mm 3 mps 751 mmHg 86%

20 May, Thursday

Time Temperature Precipitation Wind Pressure Humidity
00:00 +7°C° 0 mm 3 mps 751 mmHg 87%
01:00 +5°C° 0 mm 3 mps 751 mmHg 89%
02:00 +5°C° 0 mm 3 mps 751 mmHg 90%
03:00 +5°C° 0 mm 3 mps 752 mmHg 91%
04:00 +5°C° 0 mm 3 mps 752 mmHg 92%
05:00 +7°C° 0 mm 4 mps 752 mmHg 87%
06:00 +8°C° 0 mm 4 mps 752 mmHg 82%
07:00 +10°C° 0 mm 5 mps 752 mmHg 78%
08:00 +12°C° 0.2 mm 5 mps 752 mmHg 74%
09:00 +12°C° 0.2 mm 5 mps 752 mmHg 71%
10:00 +13°C° 0.2 mm 6 mps 752 mmHg 67%
11:00 +13°C° 0.2 mm 5 mps 752 mmHg 65%
12:00 +14°C° 0.2 mm 5 mps 752 mmHg 63%
13:00 +14°C° 0.2 mm 5 mps 752 mmHg 61%
14:00 +14°C° 0.3 mm 5 mps 752 mmHg 61%
15:00 +14°C° 0.3 mm 5 mps 752 mmHg 62%
16:00 +14°C° 0.3 mm 5 mps 751 mmHg 62%
17:00 +13°C° 0.1 mm 4 mps 751 mmHg 67%
18:00 +12°C° 0.1 mm 3 mps 751 mmHg 73%
19:00 +11°C° 0.1 mm 3 mps 751 mmHg 78%
20:00 +10°C° 0 mm 3 mps 751 mmHg 80%
21:00 +10°C° 0 mm 3 mps 751 mmHg 83%
22:00 +9°C° 0 mm 3 mps 751 mmHg 85%
23:00 +9°C° 0.1 mm 3 mps 750 mmHg 86%
Show more

We Need Your Consent

Meteoprog and our Service Providers may store and access personal data such as cookies, device identifiers or other similar technologies on your device and process such data to personalise content and ads, as well as provide social media features and to analyse the traffic.

  • Store and/or access information on your device

    Cookies, device identifiers or other information can be stored or accessed on your device for the purposes indicated above.

  • Personalised ads and content, ad and content measurement, audience insights, and products development

    Ads and content can be personalised based on a profile. More data can be added to better personalise ads and content. Ad and content performance can be measured. Insights about the audience who saw the ads and content can be derived. Such data can be used to develop or improve user’s experience, systems and software.

By clicking ‘I Agree’ you will allow the use of indicated cookies, device identifiers, web beacons or other similar technologies. Your settings can be changed in the browser on your device.

For certain purposes, legitimate interests may be relied on, rather than consent. You can read more about this in our Privacy and Cookie Policy.